Wind_Speed
5 5 5 5 5 4 4 4 4 5 5 6 6 6 6 6 7 8 7 7 8 8 7 7 7 8 9 10 11 12 12 13 13 14 16 17 18 19
5 5 5 5 5 5 5 5 5 6 6 6 6 6 7 7 7 8 9 9 10 10 10 10 10 11 12 13 13 14 15 16 17 17 18 19 20 21
4 4 4 4 5 6 6 6 6 6 7 7 7 8 8 9 9 9 10 11 11 11 12 12 12 13 14 15 16 16 17 18 19 20 20 21 22 23
3 4 4 5 5 5 6 6 7 7 8 8 8 9 10 10 10 11 11 12 12 12 13 14 15 15 16 17 18 19 20 21 21 22 23 24 24 25
3 4 5 5 5 6 6 7 7 8 8 9 9 10 11 11 12 13 14 14 14 15 16 16 17 18 19 20 20 21 22 23 24 25 26 26 27 28
4 5 5 5 6 7 7 8 9 9 10 10 11 12 12 13 14 15 15 16 16 17 18 19 20 20 21 21 22 23 24 24 25 27 28 29 30 31
6 6 6 7 7 8 9 10 11 11 12 12 13 14 14 15 16 16 17 18 19 20 21 21 22 22 23 24 24 25 26 27 28 29 30 31 32 33
7 8 8 8 9 10 11 12 12 13 13 14 15 16 16 17 18 19 19 21 22 22 23 24 24 25 25 26 27 28 29 30 31 32 33 34 36 37
9 9 9 10 11 12 13 13 14 15 15 16 17 17 18 19 20 21 22 23 24 25 25 26 27 27 28 29 30 31 32 33 34 35 36 38 39 39
10 10 11 12 13 13 14 15 16 16 17 18 19 20 21 21 23 23 24 25 26 27 28 28 28 29 31 32 33 34 35 36 37 38 40 41 41 41
12 13 13 14 15 15 16 17 18 19 20 21 22 22 23 24 25 25 26 27 28 29 30 30 30 31 32 33 34 36 37 38 40 41 42 43 43 43
15 15 16 16 17 17 18 19 20 21 22 23 23 24 25 26 27 28 29 30 30 31 32 32 33 33 33 34 36 37 39 40 42 43 44 45 45 46
17 17 18 18 18 19 20 21 22 23 23 24 25 26 27 28 30 30 31 32 33 33 34 34 35 36 37 37 38 40 41 42 43 45 46 47 48 48
18 19 19 20 20 21 22 23 24 24 25 26 27 28 29 30 31 32 33 34 34 35 36 37 38 39 39 39 40 42 43 45 46 47 48 48 49 50
20 20 21 21 22 23 24 25 26 27 27 28 29 30 31 32 33 34 34 35 36 37 38 39 40 41 42 42 42 43 45 46 48 48 49 50 50 51
22 23 23 24 25 26 27 27 28 29 30 30 31 32 33 34 35 36 36 37 38 39 40 41 42 43 43 44 45 46 48 48 49 50 51 51 52 53
25 25 26 26 27 28 29 29 30 31 32 33 34 35 35 36 37 38 38 39 40 41 42 43 44 45 46 47 47 48 49 50 51 52 52 52 53 54
27 27 28 29 30 30 31 31 32 33 34 35 36 37 37 38 39 40 41 41 42 44 45 45 46 47 48 49 51 51 51 52 52 53 54 54 54 55
29 30 31 31 32 32 33 34 34 35 36 37 38 39 40 40 41 42 43 44 45 46 46 47 48 49 50 51 52 53 54 54 54 54 55 55 55 55
31 32 33 33 34 34 34 35 36 37 38 39 40 41 41 42 43 44 45 46 47 48 48 49 50 51 53 53 53 54 56 56 56 56 56 56 56 56
32 33 34 34 35 35 36 37 38 38 39 40 41 42 43 44 45 46 47 49 49 50 51 51 53 54 55 56 56 56 57 58 59 58 58 58 57 56
34 35 35 36 36 37 38 39 40 41 41 42 43 44 45 46 47 48 50 50 51 52 53 53 54 56 57 58 59 59 59 59 59 60 60 60 59 58
36 36 37 37 38 39 40 41 42 43 44 45 46 47 47 48 50 51 52 52 53 54 54 55 56 57 58 59 59 59 59 59 59 59 59 59 59 58
Wind_Direction
52 56 53 44 37 27 21 19 14 11 9 5 357 351 354 352 351 350 345 336 334 335 323 318 309 304 302 299 299 295 292 291 290 288 287 288 289 290
55 50 43 36 34 26 21 17 11 4 1 359 356 352 350 350 349 351 349 346 337 330 323 318 312 306 304 303 301 299 296 295 294 293 292 291 291 292
38 35 34 33 25 19 16 11 6 3 2 -0 360 357 354 351 349 346 344 344 336 328 321 317 315 312 308 305 303 300 297 296 295 295 295 294 292 292
23 20 20 13 8 9 9 5 1 358 357 354 351 349 348 346 342 338 334 333 330 326 322 317 313 311 307 305 303 302 300 297 296 295 295 295 293 292
357 358 355 356 358 360 356 353 350 346 344 341 339 338 336 334 332 330 328 326 322 322 319 316 314 312 310 307 306 304 303 300 299 298 297 296 295 294
336 337 339 343 346 345 342 339 336 334 333 331 330 329 328 327 326 326 324 322 320 319 317 316 314 312 310 307 305 303 302 301 299 299 298 297 296 295
321 326 327 328 329 330 330 330 328 326 325 324 323 323 322 321 321 321 319 319 317 315 315 313 311 309 307 305 304 302 302 301 301 301 300 298 297 295
307 311 314 316 317 319 321 321 320 319 319 319 319 319 317 317 317 318 316 315 315 314 313 311 310 309 307 306 304 303 302 302 301 302 301 300 298 297
296 300 303 308 310 312 313 315 316 317 316 316 317 317 316 316 316 316 315 314 314 313 312 311 309 308 307 306 305 305 304 303 302 302 302 301 299 298
294 296 299 302 304 307 310 312 314 316 316 315 314 314 313 313 313 313 314 313 313 311 310 310 309 308 307 307 306 306 305 304 303 302 302 301 300 298
290 292 296 298 300 302 304 307 309 310 311 312 312 312 312 311 312 312 313 313 313 312 311 310 309 309 308 308 307 306 305 304 303 302 302 301 299 298
288 290 292 294 296 299 302 304 305 307 308 309 309 310 310 310 312 312 312 312 312 311 311 311 310 309 309 308 307 306 306 305 304 303 302 301 300 299
287 289 291 294 296 298 300 302 303 305 307 308 308 308 308 309 310 311 311 312 312 312 311 310 310 309 309 308 307 307 306 306 305 304 303 302 302 301
286 289 292 294 296 298 300 301 302 303 305 306 307 307 308 308 309 310 309 310 310 311 311 311 310 310 309 308 308 308 307 306 305 304 304 303 303 302
285 287 290 292 295 298 300 301 302 303 304 305 306 306 307 307 307 308 308 308 309 310 310 310 310 310 310 309 309 309 308 307 306 305 304 303 303 303
284 286 288 291 293 296 298 300 301 302 303 304 304 305 306 306 306 307 307 307 308 309 309 309 309 309 309 309 309 309 309 308 307 306 305 305 304 304
283 285 288 290 293 295 297 299 300 301 301 302 303 304 304 305 306 306 307 307 307 308 308 308 308 308 309 309 309 309 308 308 307 307 306 305 305 304
283 285 288 291 292 294 295 297 298 299 300 301 302 303 304 304 305 306 307 307 306 307 307 307 306 307 308 309 309 308 307 307 307 307 307 306 306 305
284 286 289 291 292 293 294 296 297 299 300 301 302 303 304 304 305 305 306 307 307 307 307 307 306 306 307 308 308 308 307 308 307 307 306 306 306 305
283 286 289 291 292 293 294 296 297 299 300 301 302 303 303 304 304 305 305 306 307 307 307 307 307 307 308 308 308 307 307 307 307 307 306 306 305 304
285 287 290 291 293 294 295 296 298 299 300 301 302 303 303 303 304 305 305 306 306 307 307 307 307 307 307 307 307 307 307 306 306 306 306 306 305 304
285 287 290 292 293 294 295 296 298 299 300 301 302 302 302 303 304 305 305 306 306 306 306 307 307 307 307 307 307 307 306 306 306 306 306 306 306 305
286 287 288 290 291 293 294 295 297 298 299 300 301 301 302 303 303 304 305 305 305 305 306 306 306 307 307 307 307 307 307 306 306 306 305 306 306 306
Height
5882 5882 5882 5881 5881 5881 5881 5881 5881 5880 5880 5879 5878 5877 5876 5875 5875 5874 5873 5872 5871 5871 5870 5869 5869 5868 5868 5868 5867 5867 5867 5867 5866 5866 5866 5865 5864 5863
5883 5883 5883 5882 5882 5882 5881 5881 5881 5880 5880 5879 5878 5877 5876 5875 5874 5873 5872 5871 5870 5870 5869 5868 5867 5866 5866 5865 5864 5864 5863 5863 5862 5862 5861 5860 5859 5858
5884 5884 5884 5883 5883 5882 5882 5881 5881 5880 5879 5878 5877 5876 5875 5874 5873 5872 5871 5870 5869 5868 5867 5866 5865 5864 5863 5862 5861 5860 5859 5858 5857 5857 5856 5855 5854 5853
5885 5885 5884 5884 5883 5883 5882 5881 5881 5880 5879 5878 5877 5876 5875 5874 5872 5871 5870 5868 5867 5865 5864 5863 5861 5860 5859 5858 5857 5855 5854 5853 5852 5851 5850 5849 5847 5846
5885 5885 5884 5884 5883 5883 5882 5881 5880 5880 5879 5878 5877 5875 5874 5872 5871 5869 5868 5866 5864 5862 5860 5858 5857 5855 5854 5853 5851 5850 5849 5847 5846 5845 5843 5842 5840 5838
5885 5885 5884 5883 5883 5882 5881 5880 5880 5879 5877 5876 5875 5874 5872 5870 5868 5867 5865 5863 5861 5859 5856 5854 5852 5850 5849 5847 5846 5844 5843 5841 5839 5838 5836 5834 5832 5830
5884 5884 5883 5883 5882 5881 5880 5879 5878 5877 5876 5874 5873 5871 5869 5868 5866 5864 5861 5859 5857 5854 5852 5850 5847 5845 5843 5841 5839 5838 5836 5834 5832 5830 5828 5825 5823 5821
5883 5882 5882 5881 5880 5879 5878 5877 5876 5875 5873 5872 5870 5868 5866 5864 5862 5860 5857 5855 5852 5850 5847 5844 5841 5839 5836 5834 5832 5830 5828 5826 5824 5821 5819 5816 5813 5810
5881 5881 5880 5879 5878 5877 5876 5875 5873 5872 5870 5869 5867 5864 5862 5860 5858 5855 5853 5850 5847 5844 5841 5837 5834 5831 5829 5826 5824 5822 5819 5817 5814 5812 5809 5805 5802 5798
5878 5878 5877 5877 5876 5874 5873 5872 5870 5869 5867 5865 5863 5860 5858 5856 5853 5850 5847 5844 5841 5838 5834 5831 5828 5825 5821 5818 5815 5812 5810 5807 5804 5801 5797 5794 5790 5786
5876 5875 5875 5874 5873 5871 5870 5869 5867 5865 5863 5861 5858 5856 5853 5850 5848 5845 5842 5839 5835 5831 5827 5824 5820 5817 5814 5810 5807 5803 5800 5797 5793 5789 5785 5781 5777 5773
5872 5872 5871 5870 5869 5867 5866 5865 5863 5860 5858 5856 5853 5850 5848 5844 5841 5838 5835 5832 5828 5825 5820 5817 5813 5809 5807 5803 5798 5794 5790 5786 5781 5777 5772 5768 5763 5758
5868 5868 5866 5865 5864 5863 5861 5859 5857 5855 5853 5850 5848 5845 5842 5838 5835 5831 5827 5824 5820 5816 5812 5808 5805 5800 5797 5794 5789 5784 5779 5775 5770 5764 5759 5754 5749 5744
5864 5863 5861 5860 5859 5857 5856 5854 5851 5849 5847 5844 5841 5838 5835 5832 5828 5824 5820 5816 5812 5808 5803 5799 5795 5791 5787 5783 5779 5774 5768 5762 5757 5752 5746 5740 5735 5729
5858 5857 5856 5855 5853 5851 5849 5847 5845 5843 5840 5837 5834 5831 5828 5824 5820 5816 5812 5808 5804 5799 5794 5790 5785 5781 5776 5772 5767 5762 5757 5751 5744 5738 5733 5727 5720 5714
5852 5851 5850 5848 5847 5845 5843 5841 5838 5835 5833 5830 5827 5823 5819 5816 5811 5807 5803 5799 5795 5791 5785 5780 5774 5770 5765 5760 5755 5750 5744 5738 5732 5725 5719 5712 5705 5698
5846 5845 5843 5842 5840 5838 5836 5833 5830 5828 5824 5821 5818 5814 5810 5806 5802 5798 5794 5790 5785 5781 5776 5770 5764 5758 5753 5748 5743 5737 5730 5724 5717 5711 5705 5698 5691 5683
5838 5837 5836 5834 5832 5830 5827 5825 5822 5819 5816 5812 5809 5805 5801 5797 5793 5788 5784 5779 5774 5770 5765 5759 5753 5748 5742 5735 5729 5723 5717 5710 5704 5696 5689 5683 5677 5669
5831 5829 5827 5825 5823 5821 5818 5816 5813 5810 5806 5803 5799 5795 5791 5786 5782 5778 5773 5768 5763 5758 5752 5747 5741 5735 5729 5724 5717 5709 5702 5696 5689 5682 5674 5667 5661 5654
5822 5820 5818 5816 5814 5812 5809 5806 5803 5800 5796 5792 5788 5784 5780 5775 5771 5766 5761 5756 5751 5745 5740 5734 5728 5721 5715 5709 5703 5696 5687 5679 5673 5666 5659 5652 5645 5638
5813 5811 5809 5807 5804 5802 5799 5796 5793 5789 5786 5782 5777 5773 5769 5764 5759 5754 5749 5744 5738 5733 5727 5721 5714 5707 5700 5694 5688 5681 5673 5664 5656 5649 5642 5636 5630 5623
5803 5802 5799 5797 5794 5791 5788 5785 5782 5778 5774 5770 5766 5761 5757 5752 5747 5742 5736 5731 5725 5719 5713 5707 5700 5693 5686 5679 5672 5666 5659 5650 5641 5632 5624 5617 5610 5604
5794 5791 5789 5787 5784 5781 5777 5774 5770 5766 5762 5758 5753 5749 5744 5739 5733 5728 5723 5717 5711 5705 5699 5692 5686 5678 5671 5663 5656 5649 5642 5635 5627 5620 5612 5602 5594 5587